Orbital Elements at Epoch 2459200.5 (2020-Dec-17.0) TDB
Reference: JPL 19 (heliocentric ecliptic J2000)
Element | Value | Uncertainty (1-sigma) | Units |
e | .09003936229094214 | 4.3641e-08 | |
a | 2.736132720282939 | 1.9588e-08 | au |
q | 2.489773075005282 | 1.2811e-07 | au |
i | 6.620795226249697 | 5.6954e-06 | deg |
node | 230.8727382312197 | 3.6459e-05 | deg |
peri | 118.5249140109151 | 4.809e-05 | deg |
M | 310.4715067444798 | 3.2791e-05 | deg |
tp | 2459427.934729077282 (2021-Aug-01.43472908) | 0.00015152 | TDB |
period | 1653.119186271553 4.53 | 1.7752e-05 4.86e-08 | d yr |
n | .2177701420379401 | 2.3386e-09 | deg/d |
Q | 2.982492365560595 | 2.1352e-08 | au |
|
| | Orbit Determination Parameters
Additional Information
|